Location: Newark
(48.5667°N, 7.8167°E)
Time: 07:17:22
(UTC+00:00)

JY1SAT - Pass Details

Date: 01 August 2021
Orbit: 568 x 591 km, 97.7° (Epoch: 26 September)

Event Time Altitude Azimuth Distance (km) Brightness Sun altitude
Exits shadow 21:24:18 26° 193° (SSW) 1,172 ? -17.5°
Maximum altitude 21:26:26 54° 260° (W) 720 ? -17.7°
Drops below altitude 10° 21:30:33 10° 338° (NNW) 1,933 ? -18.1°
Sets 21:32:47 0° 343° (NNW) 2,841 ? -18.3°
